"startDT [UTC]","vpos","CH4 [ppm]","stdev(CH4) [ppm]","CO2 [ppm]","stdev(CO2) [ppm]","H2O [ppm]","stdev(H2O)","p_LGR [torr]","T_LGR [C]","mt1_LGR [us]","mt2_LGR [us]","T_ECpre [C]","T_EC1 [C]","T_EC2 [C]","p_inlet [hPa]","p_in [hPa]","p_out [hPa]","T_inlet [C]","RH_inlet [%]","dwpt_inlet [C]","T_vent [C]","RH_vent [%]","dwpt_vent [C]","flow_vent [l min-1]","flow_inlet [l min-1]","dwpt_sample [C]","T_room [C]"
2013-04-15 00:00:00,0.0,1.9156,0.0010,405.99,0.36,193.6,47.9,138.09,29.41,24.65,36.41,0.04,-272.76,-272.76,-41,559,-937,22.8,4.7,-19.4,23.1,4.8,-19.1,5.73,2.42,-24.4,28.8
2013-04-15 00:01:00,0.0,1.9154,0.0008,405.94,0.32,194.2,44.6,138.08,29.42,24.65,36.41,0.04,-272.76,-272.76,-41,559,-938,22.8,4.7,-19.5,23.1,4.7,-19.3,5.73,2.44,-24.4,28.8
2013-04-15 00:02:00,0.0,1.9150,0.0010,405.91,0.29,185.7,35.1,138.09,29.42,24.66,36.42,0.04,-272.76,-272.76,-41,559,-938,22.8,4.7,-19.5,23.1,4.7,-19.3,5.73,2.44,-24.4,28.8
2013-04-15 00:03:00,0.0,1.9153,0.0011,405.91,0.31,200.7,36.8,138.08,29.42,24.65,36.41,0.04,-272.76,-272.76,-41,560,-938,22.9,4.7,-19.5,23.1,4.8,-19.2,5.73,2.42,-24.4,28.9
2013-04-15 00:04:00,0.0,1.9158,0.0010,405.89,0.37,190.7,45.8,138.08,29.42,24.66,36.42,0.04,-272.76,-272.76,-41,560,-938,22.9,4.7,-19.5,23.1,4.8,-19.2,5.73,2.39,-24.4,28.9
2013-04-15 00:05:00,0.0,1.9160,0.0010,406.02,0.35,202.0,38.3,138.08,29.42,24.65,36.41,0.04,-272.76,-272.76,-41,560,-937,22.9,4.7,-19.4,23.1,4.8,-19.1,5.73,2.38,-24.4,28.8
2013-04-15 00:06:00,0.0,1.9161,0.0009,405.99,0.27,187.1,41.8,138.08,29.42,24.65,36.42,0.04,-272.76,-272.76,-41,560,-937,22.9,4.7,-19.4,23.1,4.8,-19.1,5.73,2.38,-24.4,28.8
2013-04-15 00:07:00,0.0,1.9158,0.0011,405.97,0.29,190.8,40.5,138.08,29.42,24.65,36.41,0.04,-272.76,-272.76,-41,560,-938,22.9,4.8,-19.3,23.1,4.8,-19.0,5.73,2.40,-24.4,28.9
2013-04-15 00:08:00,0.0,1.9164,0.0011,405.83,0.28,196.1,43.0,138.08,29.42,24.65,36.42,0.04,-272.76,-272.76,-41,560,-938,22.9,4.8,-19.2,23.1,4.8,-19.0,5.73,2.42,-24.3,28.9
2013-04-15 00:09:00,0.0,1.9165,0.0010,405.92,0.31,191.5,39.7,138.08,29.42,24.65,36.42,0.04,-272.76,-272.76,-41,560,-938,22.9,4.8,-19.1,23.2,4.9,-18.9,5.73,2.43,-24.3,28.9
2013-04-15 00:10:00,0.0,1.9164,0.0010,405.90,0.25,206.8,36.2,138.08,29.42,24.65,36.41,0.04,-272.76,-272.76,-41,560,-938,23.0,4.8,-19.1,23.2,4.9,-18.8,5.73,2.44,-24.3,28.9
2013-04-15 00:11:00,0.0,1.9177,0.0009,406.00,0.30,195.2,35.0,138.08,29.42,24.65,36.41,0.04,-272.76,-272.76,-41,560,-937,23.0,4.9,-19.0,23.2,4.9,-18.7,5.73,2.42,-24.3,28.9
2013-04-15 00:12:00,0.0,1.9184,0.0013,405.98,0.35,196.5,41.9,138.08,29.42,24.65,36.41,0.04,-272.76,-272.76,-41,560,-938,23.0,5.0,-18.7,23.2,5.0,-18.4,5.73,2.40,-24.3,28.9
2013-04-15 00:13:00,0.0,1.9181,0.0012,405.83,0.36,192.4,45.8,138.08,29.42,24.65,36.42,0.04,-272.76,-272.76,-41,560,-938,23.0,5.1,-18.3,23.2,5.2,-18.1,5.73,2.38,-24.3,28.8
2013-04-15 00:14:00,0.0,1.9178,0.0010,405.87,0.31,204.6,47.4,138.08,29.43,24.65,36.42,0.04,-272.76,-272.76,-41,560,-938,23.0,5.2,-18.1,23.2,5.3,-17.8,5.73,2.38,-24.2,28.8
2013-04-15 00:15:00,0.0,1.9180,0.0011,406.01,0.31,195.9,35.0,138.08,29.43,24.65,36.41,0.04,-272.76,-272.76,-41,560,-938,23.0,5.3,-17.9,23.2,5.4,-17.7,5.73,2.38,-24.3,28.8
2013-04-15 00:16:00,0.0,1.9179,0.0013,405.79,0.30,203.8,41.7,138.08,29.42,24.65,36.42,0.04,-272.76,-272.76,-41,560,-937,23.0,5.4,-17.8,23.2,5.4,-17.5,5.73,2.41,-24.2,28.8
2013-04-15 00:17:00,0.0,1.9180,0.0011,405.92,0.32,205.5,40.8,138.08,29.43,24.65,36.42,0.04,-272.76,-272.76,-41,560,-937,23.0,5.4,-17.7,23.2,5.5,-17.5,5.73,2.43,-24.2,28.9
2013-04-15 00:18:00,0.0,1.9180,0.0010,405.97,0.31,215.3,40.2,138.08,29.43,24.66,36.41,0.04,-272.76,-272.76,-41,561,-938,23.1,5.4,-17.6,23.2,5.5,-17.4,5.73,2.44,-24.2,28.9
2013-04-15 00:19:00,0.0,1.9177,0.0011,405.93,0.26,207.9,42.1,138.08,29.43,24.66,36.42,0.04,-272.76,-272.76,-41,560,-938,23.1,5.5,-17.6,23.3,5.5,-17.4,5.73,2.42,-24.2,28.9
2013-04-15 00:20:00,0.0,1.9181,0.0011,405.93,0.31,190.6,39.9,138.08,29.43,24.65,36.42,0.04,-272.76,-272.76,-41,560,-938,23.1,5.5,-17.6,23.3,5.5,-17.3,5.73,2.40,-24.2,28.9
2013-04-15 00:21:00,0.0,1.9179,0.0011,406.10,0.30,203.6,42.4,138.08,29.44,24.65,36.42,0.04,-272.76,-272.76,-41,561,-938,23.1,5.5,-17.6,23.3,5.5,-17.3,5.73,2.37,-24.2,28.9
2013-04-15 00:22:00,0.0,1.9177,0.0011,405.93,0.34,199.4,38.4,138.08,29.44,24.65,36.42,0.04,-272.76,-272.76,-41,561,-937,23.1,5.5,-17.5,23.3,5.5,-17.3,5.73,2.37,-24.2,28.9
2013-04-15 00:23:00,0.0,1.9176,0.0010,406.00,0.30,215.4,40.4,138.08,29.44,24.66,36.41,0.04,-272.76,-272.76,-41,561,-938,23.1,5.5,-17.5,23.3,5.5,-17.3,5.73,2.39,-24.2,28.9
2013-04-15 00:24:00,0.0,1.9177,0.0009,405.81,0.29,208.0,39.5,138.08,29.44,24.65,36.43,0.04,-272.76,-272.76,-41,561,-938,23.1,5.5,-17.4,23.3,5.6,-17.2,5.73,2.43,-24.1,28.9
2013-04-15 00:25:00,0.0,1.9173,0.0010,405.90,0.36,219.1,36.9,138.08,29.44,24.66,36.42,0.04,-272.76,-272.76,-41,561,-938,23.2,5.5,-17.4,23.3,5.6,-17.2,5.73,2.44,-24.1,28.9
2013-04-15 00:26:00,0.0,1.9172,0.0012,405.86,0.36,208.6,39.9,138.08,29.44,24.66,36.42,0.04,-272.76,-272.76,-41,561,-937,23.2,5.5,-17.4,23.3,5.6,-17.2,5.73,2.43,-24.1,28.9
2013-04-15 00:27:00,0.0,1.9175,0.0010,405.89,0.29,209.5,39.3,138.08,29.44,24.66,36.42,0.04,-272.76,-272.75,-41,561,-937,23.2,5.5,-17.4,23.4,5.6,-17.1,5.73,2.41,-24.1,28.9
2013-04-15 00:28:00,0.0,1.9174,0.0009,405.77,0.32,211.4,44.2,138.08,29.45,24.66,36.43,0.04,-272.76,-272.76,-41,561,-938,23.2,5.5,-17.4,23.4,5.6,-17.1,5.73,2.39,-24.1,28.9
2013-04-15 00:29:00,0.0,1.9173,0.0010,405.87,0.34,211.6,45.1,138.08,29.45,24.66,36.42,0.04,-272.76,-272.76,-41,561,-938,23.2,5.5,-17.4,23.4,5.5,-17.2,5.73,2.37,-24.1,28.9
2013-04-15 00:30:00,0.0,1.9172,0.0011,405.88,0.34,214.1,37.5,138.08,29.46,24.65,36.42,0.04,-272.76,-272.76,-41,561,-938,23.2,5.5,-17.4,23.4,5.6,-17.2,5.73,2.38,-24.1,29.0
2013-04-15 00:31:00,0.0,1.9176,0.0009,405.94,0.32,209.2,32.2,138.08,29.46,24.66,36.42,0.04,-272.76,-272.76,-41,561,-938,23.2,5.5,-17.5,23.4,5.6,-17.1,5.73,2.41,-24.1,29.0
2013-04-15 00:32:00,0.0,1.9179,0.0010,405.90,0.30,214.0,36.4,138.08,29.46,24.66,36.43,0.04,-272.76,-272.76,-41,561,-937,23.2,5.5,-17.4,23.4,5.6,-17.1,5.73,2.44,-24.0,29.0
2013-04-15 00:33:00,0.0,1.9180,0.0011,405.95,0.28,218.8,43.6,138.08,29.46,24.65,36.42,0.04,-272.76,-272.76,-41,561,-937,23.2,5.5,-17.4,23.4,5.6,-17.1,5.73,2.44,-24.0,29.0
2013-04-15 00:34:00,0.0,1.9174,0.0011,405.92,0.30,219.8,37.3,138.08,29.46,24.66,36.42,0.04,-272.76,-272.76,-41,561,-938,23.2,5.5,-17.4,23.4,5.6,-17.1,5.73,2.42,-24.0,29.0
2013-04-15 00:35:00,0.0,1.9178,0.0013,405.93,0.38,214.8,42.3,138.08,29.46,24.65,36.42,0.04,-272.76,-272.76,-41,561,-938,23.2,5.5,-17.4,23.4,5.6,-17.1,5.73,2.39,-24.0,29.0
2013-04-15 00:36:00,0.0,1.9177,0.0011,406.06,0.33,211.1,39.7,138.08,29.46,24.65,36.41,0.04,-272.76,-272.76,-41,561,-938,23.2,5.5,-17.4,23.4,5.6,-17.1,5.73,2.37,-24.0,29.0
2013-04-15 00:37:00,0.0,1.9179,0.0010,405.84,0.33,211.7,43.0,138.08,29.47,24.66,36.42,0.04,-272.76,-272.76,-41,561,-937,23.3,5.5,-17.4,23.4,5.6,-17.1,5.73,2.38,-24.0,29.0
2013-04-15 00:38:00,0.0,1.9179,0.0009,405.94,0.33,216.3,45.2,138.08,29.47,24.65,36.42,0.04,-272.76,-272.76,-41,561,-937,23.3,5.5,-17.4,23.5,5.5,-17.1,5.73,2.41,-24.0,29.0
2013-04-15 00:39:00,0.0,1.9176,0.0009,405.88,0.33,222.0,40.4,138.08,29.47,24.66,36.42,0.04,-272.76,-272.76,-41,561,-938,23.3,5.5,-17.4,23.5,5.6,-17.1,5.73,2.44,-23.9,29.0
2013-04-15 00:40:00,0.0,1.9179,0.0012,405.92,0.33,221.1,36.1,138.08,29.47,24.66,36.41,0.04,-272.76,-272.76,-41,562,-938,23.3,5.5,-17.4,23.5,5.6,-17.1,5.73,2.44,-23.9,29.0
2013-04-15 00:41:00,0.0,1.9179,0.0012,405.87,0.24,215.3,33.6,138.08,29.47,24.65,36.42,0.04,-272.76,-272.76,-41,561,-938,23.3,5.5,-17.4,23.5,5.5,-17.1,5.73,2.41,-23.9,29.0
2013-04-15 00:42:00,0.0,1.9177,0.0010,405.82,0.32,217.0,44.1,138.08,29.48,24.65,36.42,0.04,-272.76,-272.76,-41,561,-938,23.3,5.5,-17.4,23.5,5.6,-17.1,5.73,2.38,-23.9,29.0
2013-04-15 00:43:00,0.0,1.9177,0.0011,405.84,0.34,228.3,44.3,138.08,29.48,24.65,36.42,0.04,-272.76,-272.76,-41,562,-937,23.4,5.5,-17.4,23.5,5.6,-17.1,5.73,2.37,-23.9,29.0
2013-04-15 00:44:00,0.0,1.9172,0.0011,405.69,0.27,222.8,38.3,138.08,29.48,24.65,36.42,0.04,-272.76,-272.76,-41,562,-938,23.4,5.5,-17.4,23.5,5.5,-17.1,5.73,2.38,-23.9,29.0
2013-04-15 00:45:00,0.0,1.9172,0.0012,405.77,0.37,216.4,36.9,138.08,29.49,24.66,36.42,0.04,-272.76,-272.76,-41,562,-938,23.4,5.5,-17.4,23.5,5.6,-17.0,5.73,2.42,-23.8,29.0
2013-04-15 00:46:00,0.0,1.9173,0.0010,405.83,0.33,228.4,46.5,138.08,29.49,24.66,36.42,0.04,-272.76,-272.76,-41,562,-938,23.4,5.5,-17.4,23.6,5.5,-17.0,5.73,2.44,-23.9,29.0
2013-04-15 00:47:00,0.0,1.9176,0.0009,405.81,0.37,225.4,43.2,138.08,29.50,24.65,36.42,0.04,-272.76,-272.76,-41,562,-938,23.4,5.4,-17.4,23.6,5.5,-17.1,5.73,2.43,-23.8,29.0
2013-04-15 00:48:00,0.0,1.9174,0.0010,405.89,0.38,217.9,37.0,138.08,29.50,24.66,36.42,0.04,-272.76,-272.76,-41,562,-937,23.4,5.5,-17.4,23.6,5.6,-17.0,5.73,2.39,-23.8,29.0
2013-04-15 00:49:00,0.0,1.9181,0.0011,405.88,0.30,222.0,36.6,138.08,29.50,24.65,36.42,0.04,-272.76,-272.76,-41,562,-937,23.4,5.5,-17.3,23.6,5.6,-17.0,5.73,2.37,-23.8,29.0
2013-04-15 00:50:00,0.0,1.9172,0.0009,405.91,0.30,233.3,37.4,138.08,29.51,24.65,36.41,0.04,-272.76,-272.76,-41,562,-937,23.4,5.5,-17.3,23.6,5.6,-17.0,5.73,2.37,-23.8,29.0
2013-04-15 00:51:00,0.0,1.9182,0.0009,405.88,0.35,227.1,40.1,138.08,29.51,24.65,36.42,0.04,-272.76,-272.76,-41,562,-938,23.5,5.5,-17.3,23.6,5.6,-17.0,5.73,2.40,-23.8,29.0
2013-04-15 00:52:00,0.0,1.9177,0.0012,405.83,0.35,231.4,35.5,138.08,29.51,24.65,36.42,0.04,-272.76,-272.76,-41,562,-938,23.5,5.5,-17.3,23.6,5.6,-17.0,5.73,2.44,-23.8,29.1
2013-04-15 00:53:00,0.0,1.9180,0.0011,405.77,0.35,219.1,41.0,138.08,29.52,24.65,36.43,0.04,-272.76,-272.76,-41,562,-938,23.5,5.5,-17.3,23.6,5.6,-17.0,5.73,2.44,-23.7,29.1
2013-04-15 00:54:00,0.0,1.9182,0.0009,405.65,0.32,217.9,39.7,138.08,29.52,24.66,36.43,0.04,-272.76,-272.76,-41,562,-937,23.5,5.5,-17.3,23.7,5.5,-17.0,5.73,2.40,-23.7,29.1
2013-04-15 00:55:00,0.0,1.9178,0.0010,405.81,0.31,241.4,43.7,138.08,29.52,24.66,36.42,0.04,-272.76,-272.76,-41,562,-937,23.5,5.4,-17.3,23.7,5.5,-17.1,5.73,2.37,-23.7,29.1
2013-04-15 00:56:00,0.0,1.9177,0.0011,405.72,0.30,227.1,34.6,138.08,29.52,24.66,36.42,0.04,-272.76,-272.76,-41,562,-938,23.5,5.4,-17.3,23.6,5.5,-17.0,5.73,2.36,-23.7,29.1
2013-04-15 00:57:00,0.0,1.9179,0.0010,405.80,0.28,234.1,32.3,138.08,29.52,24.65,36.42,0.04,-272.76,-272.76,-41,562,-938,23.5,5.4,-17.3,23.7,5.5,-17.0,5.73,2.40,-23.7,29.1
2013-04-15 00:58:00,0.0,1.9176,0.0011,405.90,0.33,229.9,39.6,138.08,29.53,24.65,36.41,0.04,-272.76,-272.76,-41,562,-938,23.5,5.4,-17.3,23.7,5.5,-17.0,5.73,2.43,-23.7,29.1
2013-04-15 00:59:00,0.0,1.9175,0.0012,405.78,0.33,231.6,32.9,138.08,29.53,24.66,36.42,0.04,-272.76,-272.76,-41,562,-938,23.6,5.4,-17.3,23.7,5.5,-17.0,5.73,2.44,-23.7,29.1
2013-04-15 01:00:00,0.0,1.9176,0.0012,405.70,0.38,249.3,43.9,138.08,29.53,24.65,36.42,0.04,-272.76,-272.76,-41,562,-938,23.6,5.5,-17.2,23.7,5.6,-16.9,5.73,2.42,-23.6,29.1
2013-04-15 01:01:00,0.0,1.9176,0.0010,405.74,0.33,243.3,45.6,138.08,29.54,24.65,36.42,0.04,-272.76,-272.76,-41,562,-937,23.6,5.5,-17.2,23.7,5.6,-16.9,5.73,2.38,-23.6,29.1
2013-04-15 01:02:00,0.0,1.9182,0.0012,405.71,0.34,227.5,43.1,138.08,29.54,24.65,36.42,0.04,-272.76,-272.76,-41,562,-937,23.6,5.5,-17.2,23.7,5.6,-16.9,5.73,2.36,-23.6,29.1
2013-04-15 01:03:00,0.0,1.9178,0.0011,405.72,0.27,230.1,34.3,138.08,29.55,24.65,36.42,0.04,-272.76,-272.76,-41,563,-938,23.6,5.5,-17.2,23.7,5.6,-16.9,5.73,2.38,-23.6,29.1
2013-04-15 01:04:00,0.0,1.9173,0.0012,405.69,0.32,231.3,38.7,138.08,29.55,24.65,36.42,0.04,-272.76,-272.76,-41,563,-938,23.6,5.5,-17.1,23.7,5.6,-16.9,5.73,2.42,-23.6,29.1
2013-04-15 01:05:00,0.0,1.9175,0.0011,405.74,0.35,242.4,42.7,138.08,29.55,24.65,36.42,0.04,-272.76,-272.76,-41,563,-938,23.6,5.5,-17.1,23.8,5.6,-16.9,5.73,2.44,-23.6,29.1
2013-04-15 01:06:00,0.0,1.9177,0.0009,405.77,0.30,243.5,40.1,138.08,29.55,24.65,36.42,0.04,-272.76,-272.76,-41,563,-938,23.6,5.5,-17.1,23.8,5.6,-16.8,5.73,2.42,-23.5,29.2
2013-04-15 01:07:00,0.0,1.9179,0.0011,405.75,0.34,239.6,36.1,138.08,29.56,24.65,36.42,0.04,-272.76,-272.76,-41,563,-937,23.6,5.5,-17.0,23.8,5.6,-16.7,5.73,2.38,-23.5,29.2
2013-04-15 01:08:00,0.0,1.9179,0.0011,405.73,0.31,241.7,37.9,138.08,29.56,24.65,36.42,0.04,-272.76,-272.76,-41,563,-938,23.7,5.5,-17.0,23.8,5.6,-16.7,5.73,2.36,-23.5,29.2
2013-04-15 01:09:00,0.0,1.9178,0.0010,405.68,0.30,248.7,42.8,138.08,29.56,24.65,36.42,0.04,-272.76,-272.76,-42,563,-938,23.7,5.5,-17.0,23.8,5.6,-16.8,5.73,2.39,-23.5,29.2
2013-04-15 01:10:00,0.0,1.9174,0.0008,405.67,0.39,242.6,38.7,138.08,29.57,24.66,36.42,0.04,-272.76,-272.76,-42,563,-938,23.7,5.5,-17.0,23.8,5.6,-16.7,5.73,2.42,-23.5,29.2
2013-04-15 01:11:00,0.0,1.9174,0.0010,405.66,0.36,242.8,33.9,138.08,29.57,24.65,36.43,0.04,-272.76,-272.76,-42,563,-938,23.7,5.5,-17.0,23.8,5.6,-16.7,5.73,2.45,-23.5,29.2
2013-04-15 01:12:00,0.0,1.9178,0.0009,405.73,0.29,241.2,38.8,138.08,29.57,24.65,36.42,0.04,-272.76,-272.76,-42,563,-938,23.7,5.5,-17.0,23.9,5.6,-16.7,5.73,2.42,-23.5,29.2
2013-04-15 01:13:00,0.0,1.9170,0.0010,405.77,0.36,246.1,35.9,138.08,29.57,24.65,36.42,0.04,-272.76,-272.76,-42,563,-938,23.7,5.5,-17.0,23.8,5.6,-16.7,5.73,2.37,-23.5,29.2
2013-04-15 01:14:00,0.0,1.9173,0.0010,405.59,0.33,247.5,35.3,138.08,29.58,24.65,36.43,0.04,-272.76,-272.76,-42,563,-938,23.7,5.5,-17.0,23.8,5.6,-16.7,5.73,2.36,-23.4,29.2
2013-04-15 01:15:00,0.0,1.9168,0.0011,405.75,0.36,233.3,29.9,138.08,29.58,24.66,36.42,0.04,-272.76,-272.76,-41,563,-937,23.8,5.5,-16.9,23.9,5.7,-16.6,5.73,2.39,-23.4,29.2
2013-04-15 01:16:00,0.0,1.9168,0.0010,405.75,0.31,244.2,42.3,138.07,29.59,24.65,36.42,0.04,-272.76,-272.76,-42,563,-938,23.7,5.5,-17.0,23.9,5.6,-16.7,5.73,2.44,-23.4,29.2
2013-04-15 01:17:00,0.0,1.9171,0.0011,405.82,0.35,251.5,37.6,138.07,29.59,24.65,36.42,0.04,-272.76,-272.76,-42,563,-938,23.8,5.5,-16.9,23.9,5.7,-16.6,5.73,2.44,-23.4,29.2
2013-04-15 01:18:00,0.0,1.9174,0.0010,405.69,0.32,240.8,36.9,138.08,29.60,24.66,36.43,0.04,-272.76,-272.76,-42,563,-938,23.8,5.5,-16.9,23.9,5.6,-16.6,5.73,2.41,-23.4,29.2
2013-04-15 01:19:00,0.0,1.9170,0.0010,405.71,0.32,243.6,37.3,138.07,29.60,24.66,36.42,0.04,-272.76,-272.76,-42,563,-938,23.8,5.5,-16.9,23.9,5.6,-16.6,5.73,2.37,-23.4,29.2
2013-04-15 01:20:00,0.0,1.9171,0.0012,405.95,0.32,245.5,37.0,138.08,29.60,24.66,36.41,0.04,-272.76,-272.76,-42,563,-938,23.8,5.5,-16.9,23.9,5.6,-16.6,5.73,2.36,-23.4,29.2
2013-04-15 01:21:00,0.0,1.9167,0.0010,405.74,0.32,247.8,38.1,138.07,29.61,24.66,36.43,0.04,-272.76,-272.76,-42,563,-938,23.8,5.5,-16.9,23.9,5.6,-16.6,5.73,2.40,-23.4,29.3
2013-04-15 01:22:00,0.0,1.9160,0.0010,405.73,0.35,250.5,35.9,138.07,29.61,24.66,36.42,0.04,-272.75,-272.76,-42,563,-938,23.8,5.5,-17.0,24.0,5.6,-16.6,5.73,2.44,-23.3,29.3
2013-04-15 01:23:00,0.0,1.9161,0.0011,405.78,0.35,252.5,39.2,138.07,29.61,24.66,36.42,0.04,-272.76,-272.76,-42,564,-938,23.8,5.5,-16.9,24.0,5.7,-16.5,5.73,2.43,-23.3,29.3
2013-04-15 01:24:00,0.0,1.9160,0.0010,405.83,0.31,262.3,41.9,138.07,29.62,24.66,36.42,0.04,-272.76,-272.76,-42,564,-938,23.9,5.5,-16.8,24.0,5.7,-16.5,5.73,2.38,-23.3,29.3
2013-04-15 01:25:00,0.0,1.9161,0.0011,405.71,0.36,247.9,34.1,138.07,29.62,24.66,36.43,0.04,-272.76,-272.76,-42,564,-938,23.9,5.6,-16.8,24.0,5.7,-16.5,5.73,2.35,-23.3,29.3
2013-04-15 01:26:00,0.0,1.9169,0.0011,405.77,0.35,248.5,38.5,138.07,29.63,24.66,36.42,0.04,-272.76,-272.76,-42,564,-938,24.0,5.6,-16.7,24.0,5.7,-16.5,5.73,2.38,-23.3,29.3
2013-04-15 01:27:00,0.0,1.9160,0.0010,405.77,0.31,244.3,41.2,138.07,29.63,24.66,36.42,0.04,-272.76,-272.76,-42,564,-938,23.9,5.5,-16.8,24.0,5.7,-16.5,5.73,2.42,-23.3,29.3
2013-04-15 01:28:00,0.0,1.9164,0.0011,405.76,0.31,255.9,44.5,138.07,29.64,24.65,36.42,0.04,-272.76,-272.76,-42,564,-938,24.0,5.5,-16.8,24.1,5.7,-16.4,5.73,2.44,-23.2,29.3
2013-04-15 01:29:00,0.0,1.9155,0.0008,405.70,0.33,254.3,37.2,138.07,29.64,24.66,36.43,0.04,-272.76,-272.76,-42,564,-939,24.0,5.5,-16.8,24.1,5.6,-16.5,5.73,2.41,-23.2,29.4
2013-04-15 01:30:00,0.0,1.9163,0.0013,405.72,0.33,247.5,32.8,138.07,29.64,24.65,36.43,0.04,-272.76,-272.76,-42,564,-938,24.0,5.6,-16.7,24.0,5.7,-16.4,5.73,2.36,-23.2,29.4
2013-04-15 01:31:00,0.0,1.9166,0.0009,405.77,0.33,256.7,33.0,138.07,29.65,24.65,36.43,0.04,-272.76,-272.76,-42,564,-938,24.0,5.6,-16.7,24.1,5.7,-16.4,5.73,2.36,-23.2,29.4
2013-04-15 01:32:00,0.0,1.9172,0.0009,405.76,0.34,258.6,36.5,138.07,29.65,24.66,36.42,0.04,-272.76,-272.76,-42,564,-938,24.0,5.5,-16.8,24.1,5.7,-16.4,5.73,2.41,-23.2,29.4
2013-04-15 01:33:00,0.0,1.9171,0.0011,405.85,0.32,257.4,37.3,138.07,29.66,24.65,36.42,0.04,-272.76,-272.76,-42,564,-938,24.0,5.5,-16.7,24.1,5.7,-16.4,5.73,2.44,-23.2,29.4
2013-04-15 01:34:00,0.0,1.9170,0.0010,405.94,0.35,251.4,37.6,138.07,29.67,24.65,36.42,0.04,-272.76,-272.76,-42,564,-938,24.1,5.5,-16.7,24.1,5.6,-16.5,5.73,2.42,-23.2,29.4
2013-04-15 01:35:00,0.0,1.9176,0.0010,405.89,0.37,250.5,40.5,138.07,29.67,24.65,36.42,0.04,-272.76,-272.76,-42,564,-938,24.0,5.5,-16.8,24.1,5.7,-16.4,5.73,2.37,-23.2,29.4
2013-04-15 01:36:00,0.0,1.9178,0.0011,405.80,0.34,256.5,35.5,138.07,29.68,24.65,36.43,0.04,-272.76,-272.76,-42,564,-938,24.1,5.5,-16.7,24.1,5.7,-16.4,5.73,2.35,-23.2,29.4
2013-04-15 01:37:00,0.0,1.9169,0.0009,405.81,0.36,254.6,38.9,138.07,29.68,24.66,36.43,0.04,-272.76,-272.77,-42,564,-938,24.0,5.5,-16.7,24.1,5.7,-16.4,5.73,2.38,-23.1,29.4
2013-04-15 01:38:00,0.0,1.9165,0.0010,405.89,0.37,265.4,38.0,138.07,29.69,24.65,36.42,0.04,-272.76,-272.76,-42,564,-938,24.0,5.5,-16.8,24.1,5.7,-16.4,5.73,2.44,-23.1,29.4
2013-04-15 01:39:00,0.0,1.9162,0.0011,405.81,0.36,252.7,40.1,138.07,29.69,24.65,36.43,0.04,-272.76,-272.76,-42,564,-938,24.0,5.6,-16.7,24.1,5.7,-16.4,5.73,2.44,-23.1,29.4
2013-04-15 01:40:00,0.0,1.9173,0.0013,405.75,0.35,259.2,38.9,138.07,29.69,24.65,36.43,0.04,-272.76,-272.76,-42,564,-938,24.1,5.5,-16.7,24.2,5.7,-16.4,5.73,2.38,-23.1,29.4
2013-04-15 01:41:00,0.0,1.9175,0.0009,405.82,0.36,248.6,39.9,138.07,29.70,24.66,36.42,0.04,-272.76,-272.76,-42,564,-938,24.1,5.5,-16.7,24.2,5.6,-16.5,5.73,2.35,-23.1,29.4
2013-04-15 01:42:00,0.0,1.9172,0.0010,405.90,0.30,250.1,38.5,138.07,29.70,24.66,36.42,0.04,-272.76,-272.76,-42,564,-939,24.1,5.5,-16.8,24.2,5.6,-16.6,5.73,2.38,-23.1,29.4
2013-04-15 01:43:00,0.0,1.9172,0.0011,405.82,0.33,257.1,35.5,138.07,29.70,24.65,36.43,0.04,-272.76,-272.76,-42,564,-939,24.1,5.5,-16.8,24.2,5.5,-16.6,5.73,2.43,-23.1,29.5
2013-04-15 01:44:00,0.0,1.9178,0.0010,405.87,0.33,259.0,38.0,138.07,29.71,24.65,36.43,0.04,-272.76,-272.76,-42,564,-939,24.1,5.5,-16.9,24.2,5.5,-16.7,5.73,2.44,-23.1,29.5
2013-04-15 01:45:00,0.0,1.9172,0.0010,405.79,0.32,264.6,35.0,138.07,29.72,24.65,36.43,0.04,-272.76,-272.76,-42,564,-939,24.0,5.5,-16.9,24.2,5.5,-16.6,5.73,2.39,-23.1,29.5
2013-04-15 01:46:00,0.0,1.9174,0.0010,405.90,0.33,258.3,39.3,138.07,29.72,24.66,36.42,0.04,-272.76,-272.76,-42,565,-939,24.1,5.5,-16.8,24.2,5.5,-16.7,5.73,2.35,-23.1,29.5
2013-04-15 01:47:00,0.0,1.9182,0.0011,405.77,0.41,262.5,40.0,138.07,29.73,24.65,36.43,0.04,-272.76,-272.76,-42,565,-938,24.1,5.5,-16.8,24.2,5.5,-16.7,5.73,2.38,-23.1,29.5
2013-04-15 01:48:00,0.0,1.9187,0.0010,405.83,0.33,265.8,40.2,138.07,29.73,24.66,36.42,0.04,-272.76,-272.76,-42,565,-938,24.1,5.5,-16.8,24.2,5.5,-16.7,5.73,2.43,-23.0,29.5
2013-04-15 01:49:00,0.0,1.9192,0.0009,405.79,0.33,266.9,42.0,138.07,29.74,24.66,36.43,0.04,-272.76,-272.76,-42,565,-938,24.1,5.5,-16.8,24.2,5.5,-16.7,5.73,2.43,-23.0,29.5
2013-04-15 01:50:00,0.0,1.9197,0.0012,405.90,0.35,271.3,41.7,138.07,29.74,24.65,36.43,0.04,-272.76,-272.76,-42,565,-938,24.1,5.5,-16.8,24.3,5.5,-16.7,5.73,2.38,-23.0,29.5
2013-04-15 01:51:00,0.0,1.9195,0.0011,405.79,0.31,260.8,46.1,138.07,29.75,24.66,36.43,0.04,-272.75,-272.76,-42,565,-938,24.1,5.5,-16.8,24.3,5.5,-16.6,5.73,2.35,-23.0,29.5
2013-04-15 01:52:00,0.0,1.9202,0.0011,405.91,0.39,260.7,37.0,138.07,29.76,24.65,36.42,0.04,-272.76,-272.76,-42,565,-938,24.2,5.5,-16.8,24.2,5.5,-16.6,5.73,2.38,-23.0,29.5
2013-04-15 01:53:00,0.0,1.9203,0.0010,405.78,0.33,263.7,33.5,138.07,29.76,24.66,36.43,0.04,-272.76,-272.76,-42,565,-938,24.2,5.5,-16.8,24.3,5.5,-16.7,5.73,2.44,-23.0,29.5
2013-04-15 01:54:00,0.0,1.9189,0.0010,405.80,0.33,269.3,39.6,138.07,29.77,24.66,36.43,0.04,-272.76,-272.76,-42,565,-938,24.2,5.5,-16.8,24.3,5.5,-16.7,5.73,2.43,-23.0,29.5
2013-04-15 01:55:00,0.0,1.9199,0.0010,405.96,0.32,262.6,41.3,138.07,29.77,24.66,36.43,0.04,-272.76,-272.76,-42,565,-938,24.2,5.5,-16.8,24.3,5.4,-16.8,5.73,2.38,-23.0,29.5
2013-04-15 01:56:00,0.0,1.9203,0.0010,405.70,0.37,267.9,39.1,138.07,29.78,24.66,36.43,0.04,-272.76,-272.76,-42,565,-938,24.2,5.4,-16.9,24.3,5.5,-16.7,5.73,2.35,-23.0,29.5
2013-04-15 01:57:00,0.0,1.9201,0.0011,405.74,0.36,256.7,35.4,138.07,29.78,24.66,36.44,0.04,-272.76,-272.76,-42,565,-938,24.2,5.4,-17.0,24.3,5.4,-16.8,5.73,2.38,-23.0,29.5
2013-04-15 01:58:00,0.0,1.9207,0.0009,405.86,0.33,265.6,36.4,138.07,29.79,24.65,36.43,0.04,-272.76,-272.76,-42,565,-939,24.2,5.3,-17.1,24.3,5.4,-16.8,5.73,2.43,-22.9,29.5
2013-04-15 01:59:00,0.0,1.9210,0.0010,405.95,0.33,258.4,29.3,138.07,29.80,24.66,36.43,0.04,-272.76,-272.76,-42,565,-939,24.3,5.3,-17.1,24.3,5.4,-16.9,5.73,2.44,-22.9,29.5
2013-04-15 02:00:00,0.0,1.9204,0.0011,405.87,0.28,266.5,36.6,138.07,29.80,24.66,36.43,0.04,-272.76,-272.76,-42,565,-939,24.2,5.3,-17.1,24.3,5.4,-16.8,5.73,2.38,-22.9,29.5
2013-04-15 02:01:00,0.0,1.9203,0.0010,405.79,0.36,261.8,37.6,138.07,29.80,24.66,36.43,0.04,-272.76,-272.76,-42,565,-939,24.2,5.4,-17.0,24.3,5.4,-16.7,5.73,2.35,-22.9,29.6
2013-04-15 02:02:00,0.0,1.9197,0.0010,405.84,0.37,269.7,31.1,138.07,29.81,24.66,36.43,0.04,-272.76,-272.76,-42,565,-939,24.2,5.4,-17.0,24.3,5.4,-16.7,5.73,2.39,-22.9,29.6
2013-04-15 02:03:00,0.0,1.9188,0.0009,405.90,0.35,269.2,40.9,138.07,29.82,24.65,36.43,0.04,-272.76,-272.76,-42,565,-939,24.2,5.4,-16.9,24.4,5.5,-16.6,5.73,2.44,-22.9,29.6
2013-04-15 02:04:00,0.0,1.9203,0.0012,405.78,0.32,260.0,39.6,138.07,29.82,24.66,36.44,0.04,-272.76,-272.76,-42,565,-939,24.2,5.3,-17.1,24.4,5.4,-16.7,5.73,2.42,-22.9,29.6
2013-04-15 02:05:00,0.0,1.9198,0.0011,405.85,0.34,269.4,27.4,138.07,29.83,24.66,36.43,0.04,-272.75,-272.76,-42,565,-939,24.2,5.3,-17.1,24.4,5.4,-16.8,5.73,2.36,-22.9,29.6
2013-04-15 02:06:00,0.0,1.9195,0.0015,405.76,0.32,267.5,37.3,138.07,29.83,24.66,36.43,0.04,-272.76,-272.76,-42,565,-939,24.2,5.2,-17.2,24.4,5.4,-16.9,5.73,2.35,-22.9,29.6
2013-04-15 02:07:00,0.0,1.9208,0.0011,405.91,0.35,268.6,32.8,138.07,29.84,24.66,36.42,0.04,-272.76,-272.76,-42,565,-938,24.3,5.2,-17.2,24.4,5.3,-16.9,5.73,2.40,-22.9,29.6
2013-04-15 02:08:00,0.0,1.9211,0.0008,405.81,0.43,265.4,36.4,138.07,29.84,24.65,36.43,0.04,-272.76,-272.76,-42,565,-938,24.3,5.2,-17.3,24.4,5.4,-16.9,5.73,2.44,-22.9,29.6
2013-04-15 02:09:00,0.0,1.9207,0.0010,405.98,0.36,262.1,30.9,138.07,29.85,24.66,36.42,0.04,-272.76,-272.76,-42,565,-938,24.3,5.3,-17.2,24.4,5.4,-16.9,5.73,2.42,-22.8,29.6
2013-04-15 02:10:00,0.0,1.9208,0.0009,405.84,0.39,260.3,43.0,138.07,29.86,24.66,36.43,0.04,-272.76,-272.76,-42,565,-938,24.3,5.3,-17.1,24.4,5.4,-16.8,5.73,2.36,-22.8,29.6
2013-04-15 02:11:00,0.0,1.9209,0.0011,405.93,0.40,262.2,34.3,138.07,29.86,24.66,36.42,0.04,-272.76,-272.76,-42,565,-938,24.3,5.3,-17.1,24.4,5.4,-16.8,5.73,2.35,-22.8,29.6
2013-04-15 02:12:00,0.0,1.9208,0.0010,405.94,0.31,271.0,35.6,138.07,29.87,24.66,36.43,0.04,-272.76,-272.76,-42,565,-938,24.3,5.3,-17.0,24.4,5.4,-16.7,5.73,2.40,-22.8,29.7
2013-04-15 02:13:00,0.0,1.9213,0.0010,405.88,0.32,266.7,35.0,138.07,29.87,24.66,36.43,0.04,-272.76,-272.76,-42,565,-938,24.3,5.3,-17.0,24.4,5.4,-16.8,5.73,2.44,-22.8,29.6
2013-04-15 02:14:00,0.0,1.9201,0.0009,405.91,0.39,271.2,31.0,138.07,29.88,24.66,36.43,0.04,-272.76,-272.76,-42,565,-938,24.3,5.3,-17.0,24.4,5.5,-16.6,5.73,2.41,-22.8,29.6
2013-04-15 02:15:00,0.0,1.9193,0.0012,405.82,0.36,259.1,36.7,138.07,29.89,24.66,36.43,0.04,-272.76,-272.76,-42,565,-938,24.3,5.4,-16.8,24.4,5.5,-16.6,5.73,2.34,-22.8,29.6
2013-04-15 02:16:00,0.0,1.9197,0.0011,405.85,0.32,272.4,37.4,138.07,29.89,24.66,36.43,0.04,-272.75,-272.76,-42,565,-938,24.3,5.4,-16.8,24.4,5.5,-16.5,5.73,2.36,-22.8,29.7